This demonstration page uses our WeatherBlox Daily Observations layout. Learn more.

40.92945, -100.16068

Hourly Observations for June 1, 2017

Temp ( °F °C ) Dew Point ( °F °C ) Humidity (%) Winds ( mph kmh ) Pressure ( in mb ) Visibility ( mi km ) Precip ( " mm )
12:15 am 00:15 Cloudy 62 16.4 51 10.8 70 70 Calm 30 1016 10 16.0934 0 0
12:35 am 00:35 Cloudy 63 17.2 50 10 63 63 N 5 7 29.97 1015 10 16.0934 0 0
12:55 am 00:55 Cloudy with Light Rain 62 16.5 52 11.1 71 71 E 6 9 30 1016 10 16.0934 0 0
1:15 am 01:15 Cloudy with Light Rain 61 16.2 52 11.1 72 72 ENE 6 9 30 1016 10 16.0934 0 0
1:35 am 01:35 Cloudy 62 16.4 52 11.1 71 71 ENE 12 19 30 1016 10 16.0934 0 0
1:55 am 01:55 Cloudy 63 17.1 52 11 68 68 E 10 17 29.97 1015 10 16.0934 0 0
2:15 am 02:15 Cloudy 63 17.4 52 11.1 67 67 E 17 28 29.97 1015 10 16.0934 0.01 0.254
2:35 am 02:35 Mostly Cloudy 63 17 54 12.4 74 74 ESE 20 31 29.97 1015 10 16.0934 0.01 0.254
2:55 am 02:55 Partly Cloudy 63 17.4 55 12.9 75 75 SE 14 22 29.97 1015 10 16.0934 0.01 0.254
3:15 am 03:15 Clear 64 18 55 12.7 71 71 SE 15 24 29.97 1015 10 16.0934 0 0
3:35 am 03:35 Clear 65 18.2 55 13 72 72 SSE 14 22 29.97 1015 10 16.0934 0 0
3:55 am 03:55 Clear 64 17.7 56 13.1 75 75 SSE 8 13 29.97 1015 10 16.0934 0 0
4:15 am 04:15 Clear 63 17.4 56 13.2 77 77 SSE 9 15 29.97 1015 10 16.0934 0 0
4:35 am 04:35 Clear 62 16.7 56 13.2 80 80 SE 5 7 30 1016 10 16.0934 0 0
4:55 am 04:55 Clear 62 16.8 56 13.1 79 79 ESE 6 9 29.97 1015 10 16.0934 0 0
5:15 am 05:15 Clear 60 15.4 55 12.7 84 84 ESE 7 11 30 1016 10 16.0934 0 0
5:35 am 05:35 Clear 59 14.9 55 12.8 87 87 SE 7 11 30 1016 10 16.0934 0 0
5:55 am 05:55 Clear 60 15.3 55 13 86 86 ESE 3 6 30 1016 10 16.0934 0 0
6:15 am 06:15 Sunny 58 14.5 55 12.7 89 89 E 3 6 30 1016 10 16.0934 0 0
6:35 am 06:35 Sunny 58 14.3 55 12.6 90 90 NE 5 7 30 1016 10 16.0934 0 0
6:55 am 06:55 Sunny 57 14 55 13 94 94 Calm 30 1016 7 11.26538 0 0
7:15 am 07:15 Sunny 59 14.8 57 13.7 93 93 E 3 6 30 1016 10 16.0934 0 0
7:35 am 07:35 Sunny 60 15.7 57 14.1 90 90 Calm 30 1016 10 16.0934 0 0
7:55 am 07:55 Sunny 62 16.5 58 14.5 88 88 E 6 9 30 1016 10 16.0934 0 0
8:15 am 08:15 Sunny 64 17.5 58 14.4 82 82 ESE 5 7 29.97 1015 10 16.0934 0 0
8:35 am 08:35 Sunny 65 18.1 58 14.6 80 80 ESE 6 9 29.97 1015 10 16.0934 0 0
8:55 am 08:55 Sunny 65 18.6 59 14.9 79 79 ESE 5 7 29.97 1015 10 16.0934 0 0
9:15 am 09:15 Sunny 66 19 58 14.7 76 76 SE 7 11 29.97 1015 10 16.0934 0 0
9:35 am 09:35 Sunny 68 20 59 15 73 73 SE 5 7 29.97 1015 10 16.0934 0 0
9:55 am 09:55 Sunny 69 20.7 59 15 70 70 ESE 7 11 29.94 1014 10 16.0934 0 0
10:15 am 10:15 Sunny 71 21.4 59 14.8 66 66 SE 8 13 29.94 1014 10 16.0934 0 0
10:35 am 10:35 Sunny 72 22.2 58 14.6 62 62 SE 8 13 29.94 1014 10 16.0934 0 0
10:55 am 10:55 Sunny 74 23.4 58 14.6 58 58 SE 12 19 29.94 1014 10 16.0934 0 0
11:15 am 11:15 Sunny 74 23.6 58 14.4 56 56 SE 8 13 29.94 1014 10 16.0934 0 0
11:35 am 11:35 Sunny 75 24.1 59 14.8 56 56 SE 13 20 29.91 1013 10 16.0934 0 0
11:55 am 11:55 Partly Cloudy 76 24.3 59 14.9 56 56 SSE 15 24 29.91 1013 10 16.0934 0 0
12:15 pm 12:15 Mostly Cloudy 77 24.9 60 15.5 56 56 SSE 15 24 29.88 1012 10 16.0934 0 0
12:35 pm 12:35 Mostly Cloudy 77 24.9 60 15.3 55 55 SE 16 26 29.88 1012 10 16.0934 0 0
12:55 pm 12:55 Partly Cloudy 78 25.4 60 15.3 54 54 SSE 12 19 29.88 1012 10 16.0934 0 0
1:15 pm 13:15 Partly Cloudy 78 25.5 60 15.4 54 54 SSE 14 22 29.88 1012 10 16.0934 0 0
1:35 pm 13:35 Partly Cloudy 78 25.7 60 15.6 54 54 SSE 14 22 29.88 1012 10 16.0934 0 0
1:55 pm 13:55 Partly Cloudy 79 26.2 60 15.4 51 51 SE 15 24 29.88 1012 10 16.0934 0 0
2:15 pm 14:15 Sunny 80 26.6 60 15.4 50 50 SE 13 20 29.83 1010 10 16.0934 0 0
2:35 pm 14:35 Sunny 81 27 59 15.2 48 48 ESE 12 19 29.83 1010 10 16.0934 0 0
2:55 pm 14:55 Partly Cloudy 81 27.4 59 15.2 47 47 SSE 16 26 29.83 1010 10 16.0934 0 0
3:15 pm 15:15 Partly Cloudy 81 27.3 59 14.8 46 46 ESE 14 22 29.83 1010 10 16.0934 0 0
3:35 pm 15:35 Sunny 82 28 59 15 45 45 SE 10 17 29.83 1010 10 16.0934 0 0
3:55 pm 15:55 Sunny 82 28 58 14.2 43 43 SSE 14 22 29.8 1009 10 16.0934 0 0
4:15 pm 16:15 Partly Cloudy 83 28.5 58 14.3 42 42 SE 13 20 29.8 1009 10 16.0934 0 0
4:35 pm 16:35 Sunny 84 28.7 58 14.6 42 42 S 14 22 29.8 1009 10 16.0934 0 0
4:55 pm 16:55 Sunny 83 28.3 58 14.2 42 42 S 15 24 29.8 1009 10 16.0934 0 0
5:15 pm 17:15 Sunny 82 28 59 15.1 45 45 SSE 10 17 29.8 1009 10 16.0934 0 0
5:35 pm 17:35 Sunny 83 28.1 60 15.3 46 46 S 14 22 29.8 1009 10 16.0934 0 0
5:55 pm 17:55 Partly Cloudy 83 28.3 60 15.6 46 46 SSE 16 26 29.8 1009 10 16.0934 0 0
6:35 pm 18:35 Partly Cloudy 82 27.6 60 15.7 48 48 S 13 20 29.77 1008 10 16.0934 0 0
6:55 pm 18:55 Sunny 74 23.1 47 8.3 39 39 ESE 16 26 29.94 1014 10 16.0934 0 0
7:15 pm 19:15 Partly Cloudy 82 28 60 15.3 46 46 S 12 19 29.77 1008 10 16.0934 0 0
7:35 pm 19:35 Sunny 82 27.8 60 15.8 48 48 SSE 12 19 29.77 1008 10 16.0934 0 0
7:55 pm 19:55 Sunny 81 27.3 61 15.9 50 50 SSE 13 20 29.77 1008 10 16.0934 0 0
8:15 pm 20:15 Sunny 81 27 61 15.9 51 51 SSE 14 22 29.77 1008 10 16.0934 0 0
8:35 pm 20:35 Sunny 80 26.5 61 16 53 53 SSE 12 19 29.77 1008 10 16.0934 0 0
8:55 pm 20:55 Sunny 78 25.6 61 16 55 55 SE 9 15 29.8 1009 10 16.0934 0 0
9:15 pm 21:15 Clear 77 25.2 60 15.7 56 56 SE 10 17 29.8 1009 10 16.0934 0 0
9:35 pm 21:35 Clear 76 24.6 60 15.7 58 58 SE 9 15 29.8 1009 10 16.0934 0 0
9:55 pm 21:55 Clear 75 24.1 61 16 61 61 SE 8 13 29.8 1009 10 16.0934 0 0
10:15 pm 22:15 Clear 74 23.5 61 16 63 63 SE 9 15 29.83 1010 10 16.0934 0 0
10:35 pm 22:35 Clear 74 23.2 61 16.1 64 64 SE 9 15 29.83 1010 10 16.0934 0 0
10:55 pm 22:55 Clear 73 22.6 61 16.2 67 67 SE 9 15 29.85 1011 10 16.0934 0 0
11:15 pm 23:15 Clear 72 22.4 61 16.1 68 68 SE 9 15 29.85 1011 10 16.0934 0 0
11:35 pm 23:35 Clear 72 22.2 61 16 68 68 SSE 10 17 29.85 1011 10 16.0934 0 0
11:55 pm 23:55 Clear 71 21.7 61 16 70 70 SSE 10 17 29.85 1011 10 16.0934 0 0

Powered by AerisWeather